#timestamp,LO_Frequency,Hit,StdDev 
1597532415.2,286047002.1,N
1597532435.9,286047002.4,N
1597532455.7,286047001.9,N
1597532475.6,286047001.6,N
1597532495.4,286047001.7,N
1597532515.2,286047001.7,N
1597532535.1,286047001.8,N
1597532536.0,286047001.8,N
1597532555.8,286047003.7,Y
1597532575.7,286047002.5,P
1597532595.5,286047002.5,P
1597532615.3,286047000.3,N
1597532635.2,286046998.5,N
1597532655.0,286047000.9,N
1597532655.9,286047000.9,N
1597532675.8,286047001.0,N
1597532695.6,286047000.9,N
1597532715.4,286046999.7,N
1597532735.3,286047000.7,N
1597532755.1,286047001.1,N
1597532775.9,286047000.4,N
1597532795.7,286047000.8,N
1597532815.5,286047000.5,N
1597532835.4,286047000.8,N
1597532855.2,286047000.8,N
1597532875.0,286047000.5,N
1597532875.9,286047000.5,N
1597532895.8,286046999.9,N
1597532915.6,286047000.5,N
1597532935.5,286047000.7,N
1597532955.3,286047000.9,N
1597532975.1,286047000.2,N
1597532995.9,286047000.3,N
1597533015.7,286046999.7,N
1597533035.5,286047002.8,Y
1597533055.4,286047000.6,P
1597533075.2,286046999.8,P
1597533095.0,286046999.9,N
1597533096.0,286046999.9,N
1597533115.8,286046999.7,N
1597533135.6,286047001.1,N
1597533155.5,286047000.7,N
1597533175.3,286047000.9,N
1597533195.1,286047000.8,N
1597533215.9,286047000.5,N
1597533235.7,286047001.1,N
1597533255.5,286046998.6,N
1597533275.4,286047000.7,N
1597533295.2,286047000.7,N
1597533315.1,286047000.9,N
1597533316.0,286047000.9,N
1597533335.8,286047000.4,N
1597533355.6,286047000.5,N
1597533375.5,286047000.5,N
1597533395.3,286047000.9,N
1597533415.2,286047001.1,N
1597533435.9,286047000.4,N
1597533455.7,286047000.1,N
1597533475.6,286047000.1,N
1597533495.4,286046999.9,N
1597533515.2,286046999.9,N
1597533535.1,286047002.7,Y
1597533536.0,286047002.7,P
1597533555.8,286047002.4,N
1597533575.7,286047000.6,N
1597533595.5,286047000.5,N
1597533615.3,286047000.4,N
1597533635.2,286047000.7,N
1597533655.0,286047001.1,N
1597533655.9,286047001.1,N
1597533675.8,286047001.0,N
1597533695.6,286046999.9,N
1597533715.4,286047000.4,N
1597533735.3,286046999.9,N
1597533755.1,286047002.3,N
1597533775.9,286047002.1,N
1597533795.7,286047002.2,N
1597533815.5,286047002.4,N
1597533835.4,286047000.1,N
1597533855.2,286047000.2,N
1597533875.0,286046999.8,N
1597533875.9,286046999.8,N
1597533895.8,286047000.1,N
1597533915.6,286047002.5,N
1597533935.5,286046999.8,N
1597533955.3,286047000.0,N
1597533975.1,286047000.0,N
1597533995.9,286047000.9,N
1597534015.7,286047000.7,N
1597534035.5,286047000.8,N
1597534055.4,286047000.6,N
1597534075.2,286047001.0,N
1597534095.1,286047000.2,N
1597534096.0,286047000.2,N
1597534115.8,286047000.5,N
1597534135.6,286047000.2,N
1597534155.5,286047000.1,N
1597534175.3,286046999.9,N
1597534195.2,286047000.6,N
1597534215.9,286047000.5,N
1597534235.7,286047002.6,Y
1597534255.6,286047002.8,P
1597534275.4,286047000.2,N
1597534295.2,286047002.3,N
1597534315.1,286047002.4,N
1597534316.0,286047002.4,N
1597534335.8,286047002.8,N
1597534355.7,286047000.1,N
1597534375.5,286047000.2,N
1597534395.3,286046999.8,N
1597534415.2,286046999.8,N
1597534435.0,286047000.0,N
1597534435.9,286047000.0,N
1597534455.7,286047002.6,N
1597534475.6,286047002.6,N
1597534495.4,286047000.6,N
1597534515.3,286047000.1,N
1597534535.1,286046999.8,N
1597534536.0,286046999.8,N
1597534555.8,286047002.3,N
1597534575.7,286047000.2,N
1597534595.5,286047000.0,N
1597534615.3,286047000.6,N
1597534635.2,286047000.5,N
1597534655.0,286046998.5,N
1597534655.9,286046998.5,N
1597534675.8,286047001.2,N
1597534695.6,286047000.0,N
1597534715.4,286047000.3,N
1597534735.3,286047000.5,N
1597534755.1,286047000.1,N
1597534775.8,286046999.9,N
1597534795.7,286047000.2,N
1597534815.5,286047000.3,N
1597534835.4,286047002.7,N
1597534855.2,286047002.5,N
1597534875.0,286047002.8,N
1597534875.9,286047002.8,N
1597534895.8,286047000.1,N
1597534915.6,286047001.6,N
1597534935.4,286047002.3,N
1597534955.3,286047002.3,N
1597534975.1,286047000.4,N
1597534995.9,286046999.9,N
1597535015.7,286047002.8,N
1597535035.5,286047000.2,N
1597535055.4,286047000.4,N
1597535075.2,286047000.0,N
1597535095.0,286047000.3,N
1597535095.9,286047000.3,N
1597535115.8,286046999.9,N
1597535135.6,286047000.9,N
1597535155.5,286046998.6,N
1597535175.3,286046998.1,N
1597535195.1,286047002.8,N
1597535215.9,286046999.7,N
1597535235.7,286047000.4,N
1597535255.5,286047000.1,N
1597535275.4,286046999.7,N
1597535295.2,286046999.9,N
1597535315.1,286046998.3,N
1597535316.0,286046998.3,N
1597535335.8,286046998.4,N
1597535355.6,286047001.2,N
1597535375.5,286046998.4,N
1597535395.3,286046998.9,N
1597535415.1,286046998.8,N
1597535435.9,286046999.1,N
1597535455.7,286046997.7,N
1597535475.6,286046995.3,Y
1597535495.4,286046995.7,P
1597535515.2,286046995.6,N
1597535535.1,286046997.7,N
1597535536.0,286046997.7,N
1597535555.8,286046997.4,N
1597535575.6,286046999.5,N
1597535595.5,286046996.8,N
1597535615.3,286046997.7,N
1597535635.2,286046997.1,N
1597535655.9,286046995.3,Y
1597535675.7,286046999.2,P
1597535695.6,286046996.9,P
1597535715.4,286046996.7,P
1597535735.2,286046999.2,N
1597535755.1,286046997.0,N
1597535756.0,286046997.0,N
1597535775.8,286046999.2,N
1597535795.7,286046998.4,N
1597535815.5,286047001.2,N
1597535835.3,286046998.8,N
1597535855.2,286046999.5,N
1597535875.0,286046996.6,N
1597535875.9,286046996.6,N
1597535895.8,286046997.8,N
1597535915.6,286046997.3,N
1597535935.4,286046999.3,N
1597535955.3,286046998.7,N
1597535975.1,286046999.1,N
1597535976.0,286046999.1,N
1597535995.8,286046999.5,N
